Lehigh Valley, PA

9:07 PM EST on February 06, 2016 (GMT -0500)
Lehigh Valley International

Weather History for KABE - April, 2013

Change the Weather History Date:

Saturday, April 13, 2013

  Actual Average Record
Temperature  
Mean Temperature 48 °F 49 °F  
Max Temperature 58 °F 60 °F 88 °F (1941)
Min Temperature 38 °F 38 °F 24 °F (1940)
Degree Days  
Heating Degree Days 17 16  
Month to date heating degree days 215 235  
Since 1 July heating degree days 5003 5347  
Cooling Degree Days 0 0  
Month to date cooling degree days 8 0  
Year to date cooling degree days 8 0  
Moisture  
Dew Point 38 °F    
Average Humidity 70    
Maximum Humidity 100    
Minimum Humidity 40    
Precipitation  
Precipitation 0.00 in 0.12 in 1.35 in (1961)
Month to date precipitation 1.43 1.58  
Year to date precipitation 9.78 10.70  
Snow  
Snow 0.00 in 0.00 in 3.00 in (1940)
Month to date snowfall 0.0 0.6  
Since 1 July snowfall 21.4 32.5  
Snow Depth 0.00 in    
Sea Level Pressure  
Sea Level Pressure 29.86 in    
Wind  
Wind Speed 5 mph (WNW)    
Max Wind Speed 20 mph    
Max Gust Speed 25 mph    
Visibility 7 miles    
Events Fog    
T = Trace of Precipitation, MM = Missing Value Source: NWS Daily Summary

Daily Weather History Graph

Daily Weather History Graph

Search for Another Location

Airport or City:

Trip Planner

Search our weather history database for the weather conditions in past years. The results will help you decide how hot, cold, wet, or windy it might be!

Date:

Astronomy

Apr. 13, 2013 Rise Set
Actual Time 6:25 AM EDT 7:39 PM EDT
Civil Twilight 5:57 AM EDT 8:07 PM EDT
Nautical Twilight 5:23 AM EDT 8:41 PM EDT
Astronomical Twilight 4:48 AM EDT 9:16 PM EDT
Moon 8:14 AM EDT (4/13) 11:01 PM EDT (4/13)
Length of Visible Light 14h 09m
Length of Day
13h 13m
Waxing Crescent, 10% of the Moon is Illuminated
Apr 13
Waxing Crescent
Apr 18
First Quarter
Apr 25
Full
May 2
Last Quarter
May 9
New

Hourly Weather History & Observations

Time (EDT) Temp. Windchill Dew Point Humidity Pressure Visibility Wind Dir Wind Speed Gust Speed Precip Events Conditions
12:23 AM 44.6 °F - 42.8 °F 93% 29.78 in 10.0 mi Calm Calm - N/A   Overcast
12:37 AM 44.6 °F 41.4 °F 42.8 °F 93% 29.80 in 10.0 mi West 5.8 mph - N/A   Overcast
12:51 AM 44.1 °F 42.5 °F 42.1 °F 93% 29.81 in 10.0 mi West 3.5 mph - N/A   Overcast
1:33 AM 44.6 °F - 41.0 °F 87% 29.79 in 10.0 mi Calm Calm - N/A   Overcast
1:51 AM 44.1 °F - 42.1 °F 93% 29.80 in 10.0 mi Calm Calm - N/A   Overcast
2:14 AM 44.6 °F - 42.8 °F 93% 29.80 in 10.0 mi Calm Calm - N/A   Overcast
2:51 AM 43.0 °F - 41.0 °F 93% 29.80 in 10.0 mi Calm Calm - N/A   Mostly Cloudy
3:51 AM 41.0 °F - 39.9 °F 96% 29.82 in 7.0 mi Calm Calm - N/A   Mostly Cloudy
4:18 AM 39.2 °F - 39.2 °F 100% 29.82 in 1.8 mi Calm Calm - N/A   Scattered Clouds
4:27 AM 39.2 °F 35.9 °F 39.2 °F 100% 29.82 in 0.8 mi North 4.6 mph - N/A   Partly Cloudy
4:36 AM 39.2 °F 37.0 °F 39.2 °F 100% 29.83 in 1.5 mi NNW 3.5 mph - N/A   Partly Cloudy
4:41 AM 39.2 °F 35.9 °F 39.2 °F 100% 29.83 in 3.0 mi NW 4.6 mph - N/A   Scattered Clouds
4:51 AM 39.9 °F 37.8 °F 39.9 °F 100% 29.84 in 4.0 mi WNW 3.5 mph - N/A   Mostly Cloudy
5:06 AM 39.2 °F - 39.2 °F 100% 29.84 in 1.8 mi Calm Calm - N/A   Mostly Cloudy
5:16 AM 39.2 °F - 37.4 °F 93% 29.84 in 0.5 mi Calm Calm - N/A Fog Fog
5:25 AM 39.2 °F - 39.2 °F 100% 29.85 in 2.0 mi Calm Calm - N/A   Overcast
5:51 AM 39.0 °F - 37.9 °F 96% 29.85 in 0.8 mi Calm Calm - N/A   Overcast
6:38 AM 39.2 °F - 39.2 °F 100% 29.84 in 1.5 mi Calm Calm - N/A   Clear
6:47 AM 39.2 °F - 39.2 °F 100% 29.84 in 0.8 mi Calm Calm - N/A Fog Shallow Fog
6:51 AM 39.0 °F 36.8 °F 37.9 °F 96% 29.85 in 0.2 mi SW 3.5 mph - N/A Fog Shallow Fog
6:58 AM 37.4 °F - 37.4 °F 100% 29.84 in 0.2 mi Calm Calm - N/A Fog Shallow Fog
7:51 AM 41.0 °F - 41.0 °F 100% 29.87 in 0.2 mi Calm Calm - N/A Fog Shallow Fog
7:58 AM 42.8 °F 41.1 °F 41.0 °F 93% 29.88 in 1.0 mi WSW 3.5 mph - N/A Fog Shallow Fog
8:06 AM 42.8 °F - 39.2 °F 87% 29.88 in 9.0 mi Calm Calm - N/A Fog Shallow Fog
8:51 AM 46.9 °F - 36.0 °F 66% 29.90 in 10.0 mi West 11.5 mph - N/A   Partly Cloudy
9:51 AM 48.0 °F - 34.0 °F 58% 29.91 in 10.0 mi West 5.8 mph - N/A   Overcast
10:51 AM 50.0 °F - 32.0 °F 50% 29.91 in 10.0 mi WNW 8.1 mph - N/A   Mostly Cloudy
11:51 AM 51.1 °F - 33.1 °F 50% 29.91 in 10.0 mi West 5.8 mph - N/A   Mostly Cloudy
12:51 PM 53.1 °F - 33.1 °F 47% 29.90 in 10.0 mi West 9.2 mph - N/A   Overcast
1:51 PM 54.0 °F - 33.1 °F 45% 29.88 in 10.0 mi West 9.2 mph - N/A   Overcast
2:51 PM 55.9 °F - 34.0 °F 44% 29.89 in 10.0 mi West 15.0 mph 25.3 mph N/A   Overcast
3:51 PM 55.9 °F - 33.1 °F 42% 29.88 in 10.0 mi West 11.5 mph 24.2 mph N/A   Mostly Cloudy
4:51 PM 55.9 °F - 34.0 °F 44% 29.88 in 10.0 mi WSW 9.2 mph 16.1 mph N/A   Mostly Cloudy
5:51 PM 57.0 °F - 34.0 °F 42% 29.89 in 10.0 mi West 6.9 mph - N/A   Scattered Clouds
6:51 PM 55.0 °F - 34.0 °F 45% 29.89 in 10.0 mi Variable 6.9 mph - N/A   Clear
7:51 PM 48.0 °F - 35.1 °F 61% 29.91 in 10.0 mi North 3.5 mph - N/A   Clear
8:51 PM 46.9 °F - 35.1 °F 63% 29.93 in 10.0 mi North 6.9 mph - N/A   Clear
9:51 PM 45.0 °F - 33.1 °F 63% 29.96 in 10.0 mi Calm Calm - N/A   Partly Cloudy
10:51 PM 46.0 °F - 36.0 °F 68% 29.98 in 10.0 mi Calm Calm - N/A   Overcast
11:51 PM 48.9 °F - 34.0 °F 56% 29.98 in 10.0 mi South 3.5 mph - N/A   Overcast